Location: Carrières
(48.9495°N, 2.0407°E)
Time: 11:31:34
(UTC+00:00)

Transit 2A - Pass Details

Date: 26 April 2024
Orbit: 594 x 958 km, 66.7° (Epoch: 24 May)

Event Time Altitude Azimuth Distance (km) Brightness Sun altitude
Rises 06:26:06 0° 249° (WSW) 2,891 8.4 16.2°
Reaches altitude 10° 06:28:32 10° 261° (W) 2,025 7.7 16.6°
Maximum altitude 06:32:31 29° 322° (NW) 1,239 6.9 17.3°
Drops below altitude 10° 06:36:49 10° 22° (NNE) 2,204 8.8 18.0°
Sets 06:39:36 0° 34° (NNE) 3,197 9.7 18.5°
